Regional Weather Roundup
Issued by NWS

Home | Current Version | Previous Version | Graphics & Text | Print | Product List | Glossary On
Versions: 1 2 3 4 5 6 7 8 9 10 11 12 13 14 15 16 17 18 19 20 21 22 23 24 25 26 27 28 29 30 31 32 33 34 35 36 37 38 39 40 41 42 43 44 45 46 47 48 49 50
000
ASUS43 KDTX 251901
RWRMI
MICHIGAN HOURLY REGIONAL WEATHER ROUNDUP
NATIONAL WEATHER SERVICE DETROIT/PONTIAC MI
300 PM EDT SAT MAR 25 2017

NOTE: "FAIR" INDICATES FEW OR NO CLOUDS BELOW 12,000 FEET WITH NO
SIGNIFICANT WEATHER AND/OR OBSTRUCTION TO VISIBILITY.

MIZ047>049-052>055-059>063-066>070-074>076-081>083-252000-
SOUTHEAST LOWER MICHIGAN

CITY           SKY/WX    TMP DP  RH WIND       PRES   REMARKS
ADRIAN         CLOUDY    46  41  82 E21       30.17F
ALMA           CLOUDY    37  37  98 NE18      30.22F WCI  27
ANN ARBOR      CLOUDY    44  42  93 NE14      30.18F
BAD AXE        CLOUDY    36  34  94 E12G20    30.29F WCI  28
CARO           LGT RAIN  38  37  97 NE8       30.27R WCI  32
DETROIT CITY   CLOUDY    44  41  89 E12       30.23F
DETROIT        CLOUDY    44  41  89 E9G25     30.22F FOG
FLINT          CLOUDY    41  38  89 NE12      30.23F
GROSSE ILE     CLOUDY    44  39  85 E10       30.21F
HILLSDALE      CLOUDY    48  43  81 E15G26    30.12F HAZE
HOWELL         CLOUDY    43  40  90 E10       30.19F

CITY           SKY/WX    TMP DP  RH WIND       PRES   REMARKS
JACKSON        CLOUDY    44  32  62 E13       30.15F
LAMBERTVILLE   CLOUDY    42  37  82 E14G24    30.18F
LANSING        CLOUDY    42  38  85 E17G23    30.18F
LAPEER         LGT RAIN  39  38  97 NE8       30.24F WCI  34
MASON          CLOUDY    42  41  95 E8        30.18F
MONROE         CLOUDY    43  39  87 E15G22    30.19F
MT. CLEMENS    CLOUDY    43  43 100 E8        30.22S
PONTIAC        CLOUDY    42  39  89 E13       30.21F
PORT HOPE        N/A     34  32  92 NE18      30.30S WCI  23
TRI CITIES     LGT RAIN  37  36  96 NE12      30.29R FOG     WCI  29
MIDLAND        MIX PCPN  36  34  93 NE10G20   30.28S WCI  28
TROY           CLOUDY    44  41  89 E7        30.24F
SAGINAW HB     DRIZZLE   37  36  93 NE14      30.26F WCI  29
$$
MIZ043>046-050>051-056>058-064>065-071>073-077>080-252000-
SOUTHWEST LOWER MICHIGAN

CITY           SKY/WX    TMP DP  RH WIND       PRES   REMARKS
BATTLE CREEK   CLOUDY    43  41  93 E10G21    30.14R
BENTON HARBOR  PTSUNNY   50  46  86 E13G25    30.05F
BIG RAPIDS     FLURRIES  36  33  90 E15G25    30.17F WCI  27
COLDWATER      CLOUDY    53  46  77 E13G18    30.10F
FREMONT        DRIZZLE   38  36  90 E15G22    30.16R WCI  30
HOLLAND        LGT RAIN  43  39  86 E20G28    30.12S
GRAND RAPIDS   LGT RAIN  40  38  93 E15       30.15S WCI  32
IONIA          DRIZZLE   38  37  94 NE9G23    30.20R WCI  32
KALAMAZOO      CLOUDY    45  40  82 NE7       30.12F
LUDINGTON      CLOUDY    40  36  85 E17G26    30.15S WCI  31
MARSHALL       CLOUDY    45  44  97 E8G18     30.13F
MOUNT PLEASANT LGT RAIN  36  34  93 NE20G26   30.21F WCI  25
MUSKEGON       LGT RAIN  42  38  85 E16G23    30.13S
SOUTH HAVEN    CLOUDY    43  42  95 E14G21    30.08F
$$
MIZ016>042-252000-
NORTHERN LOWER MICHIGAN

CITY           SKY/WX    TMP DP  RH WIND       PRES   REMARKS
ALPENA         CLOUDY    36  30  79 E14       30.36F WCI  27
BEAVER ISLAND  CLOUDY    36  29  77 E17G25    30.31F WCI  26
BELLAIRE       CLOUDY    41  32  70 E12G18    30.28F
CADILLAC       CLOUDY    35  32  90 E17G26    30.19F WCI  25
CHARLEVOIX     CLOUDY    39  31  73 E16       30.31F WCI  30
FRANKFORT      CLOUDY    40  33  76 E9G18     30.20F WCI  34
GAYLORD        CLOUDY    36  29  75 E9        30.27F WCI  29
GRAYLING       CLOUDY    36  32  87 E16       30.28F WCI  26
HARBOR SPRINGS CLOUDY    38  31  76 E15       30.30F WCI  29
HOUGHTON LAKE  CLOUDY    35  31  85 E17G24    30.27F WCI  25
MANISTEE       CLOUDY    42  35  76 E21G28    30.15F
OSCODA         CLOUDY    35  32  88 NE15      30.34F WCI  25
PELLSTON       CLOUDY    35  26  69 E15G30    30.33F WCI  25
ROGERS CITY    CLOUDY    34  28  79 E14         N/A  WCI  25
TRAVERSE CITY  CLOUDY    40  33  76 E10G22    30.24F WCI  33
$$
MIZ007>008-015-252000-
EASTERN UPPER MICHIGAN

CITY           SKY/WX    TMP DP  RH WIND       PRES   REMARKS
KINROSS        CLOUDY    36  23  59 E10G17    30.35F WCI  28
MACKINAC ISLAN CLOUDY    33  26  75 E13G22    30.35S WCI  23
NEWBERRY       MOSUNNY   38  27  64 E8        30.31F WCI  32
S. S. MARIE    SUNNY     39  18  42 SE10      30.35F WCI  32
MUNISING         N/A     34  30  85 N10       30.31F WCI  26
$$
MIZ004>006-011>014-085-252000-
CENTRAL UPPER MICHIGAN

CITY           SKY/WX    TMP DP  RH WIND       PRES   REMARKS
ESCANABA       PTSUNNY   38  31  76 E16       30.30F WCI  29
MENOMINEE        N/A    N/A N/A N/A MISG        N/A
SAWYER-GWINN   CLOUDY    34  30  86 N9        30.28F WCI  26
$$
MIZ001>003-009>011-084-252000-
WESTERN UPPER MICHIGAN

CITY           SKY/WX    TMP DP  RH WIND       PRES   REMARKS
IRON MOUNTAIN  CLOUDY    39  28  64 SE13G21   30.24F WCI  31
HOUGHTON       CLOUDY    32  25  75 E12G20    30.30F WCI  23
COPPER HARBOR    N/A     32  25  75 E13G20    30.35F WCI  22
IRONWOOD       CLOUDY    37  29  72 E10       30.23F WCI  30
$$

ABBREVIATIONS USED IN REMARKS
   TC - TEMPERATURE IN CELSIUS
  WCI - WIND CHILL INDEX
   HX - HEAT INDEX
  VSB - VISIBILITY





USA.gov is the U.S. government's official web portal to all federal, state and local government web resources and services.